TimeMDT,TemperatureF,Dew PointF,Humidity,Sea Level PressureIn,VisibilityMPH,Wind Direction,Wind SpeedMPH,Gust SpeedMPH,PrecipitationIn,Events,Conditions,WindDirDegrees,DateUTC
12:15 AM,64.4,44.6,49,29.96,10.0,NNE,15.0,-,N/A,,Partly Cloudy,30,2013-09-28 06:15:00
12:35 AM,64.4,42.8,45,29.97,10.0,NNE,13.8,-,N/A,,Mostly Cloudy,20,2013-09-28 06:35:00
12:55 AM,64.4,42.8,45,29.97,10.0,NNE,13.8,-,N/A,,Partly Cloudy,20,2013-09-28 06:55:00
1:15 AM,62.6,41.0,45,29.97,10.0,NNE,15.0,23.0,N/A,,Clear,20,2013-09-28 07:15:00
1:35 AM,62.6,39.2,42,29.98,10.0,NNE,17.3,-,N/A,,Partly Cloudy,20,2013-09-28 07:35:00
1:55 AM,62.6,37.4,39,29.99,10.0,NNE,15.0,-,N/A,,Partly Cloudy,20,2013-09-28 07:55:00
2:15 AM,60.8,37.4,42,29.99,10.0,NNE,15.0,-,N/A,,Clear,20,2013-09-28 08:15:00
2:35 AM,60.8,37.4,42,29.99,10.0,NNE,13.8,19.6,N/A,,Clear,20,2013-09-28 08:35:00
2:55 AM,59.0,37.4,45,30.00,10.0,NNE,12.7,-,N/A,,Clear,20,2013-09-28 08:55:00
3:15 AM,59.0,37.4,45,30.00,10.0,North,15.0,-,N/A,,Clear,10,2013-09-28 09:15:00
3:35 AM,57.2,37.4,48,30.01,10.0,NNE,12.7,-,N/A,,Partly Cloudy,30,2013-09-28 09:35:00
3:55 AM,57.2,35.6,44,30.02,10.0,North,11.5,-,N/A,,Scattered Clouds,10,2013-09-28 09:55:00
4:15 AM,57.2,33.8,41,30.02,10.0,North,13.8,-,N/A,,Scattered Clouds,10,2013-09-28 10:15:00
4:35 AM,57.2,32.0,38,30.04,10.0,North,10.4,-,N/A,,Mostly Cloudy,360,2013-09-28 10:35:00
4:55 AM,57.2,32.0,38,30.06,10.0,North,10.4,-,N/A,,Mostly Cloudy,10,2013-09-28 10:55:00
5:15 AM,57.2,32.0,38,30.07,10.0,North,10.4,-,N/A,,Scattered Clouds,10,2013-09-28 11:15:00
5:35 AM,57.2,32.0,38,30.08,10.0,North,9.2,-,N/A,,Scattered Clouds,360,2013-09-28 11:35:00
5:55 AM,55.4,32.0,41,30.09,10.0,North,8.1,-,N/A,,Partly Cloudy,10,2013-09-28 11:55:00
6:15 AM,55.4,32.0,41,30.10,10.0,North,9.2,-,N/A,,Clear,360,2013-09-28 12:15:00
6:35 AM,53.6,32.0,44,30.11,10.0,North,9.2,-,N/A,,Clear,350,2013-09-28 12:35:00
6:55 AM,53.6,32.0,44,30.12,10.0,North,10.4,-,N/A,,Partly Cloudy,350,2013-09-28 12:55:00
7:15 AM,55.4,32.0,41,30.13,10.0,North,9.2,-,N/A,,Scattered Clouds,350,2013-09-28 13:15:00
7:35 AM,55.4,32.0,41,30.14,10.0,North,12.7,-,N/A,,Scattered Clouds,350,2013-09-28 13:35:00
7:55 AM,59.0,28.4,31,30.14,10.0,NNW,17.3,21.9,N/A,,Scattered Clouds,330,2013-09-28 13:55:00
8:15 AM,59.0,26.6,29,30.14,10.0,NNW,18.4,25.3,N/A,,Scattered Clouds,340,2013-09-28 14:15:00
8:35 AM,62.6,26.6,26,30.15,10.0,NNW,21.9,-,N/A,,Clear,330,2013-09-28 14:35:00
8:55 AM,64.4,24.8,22,30.16,10.0,NNW,18.4,27.6,N/A,,Clear,340,2013-09-28 14:55:00
9:15 AM,64.4,24.8,22,30.17,10.0,NNW,20.7,24.2,N/A,,Clear,340,2013-09-28 15:15:00
9:35 AM,66.2,24.8,21,30.18,10.0,North,21.9,25.3,N/A,,Clear,10,2013-09-28 15:35:00
9:55 AM,64.4,26.6,24,30.19,10.0,NNE,18.4,-,N/A,,Clear,20,2013-09-28 15:55:00
10:15 AM,64.4,28.4,26,30.20,10.0,NNE,16.1,25.3,N/A,,Clear,20,2013-09-28 16:15:00
10:35 AM,64.4,33.8,32,30.21,10.0,NNE,12.7,-,N/A,,Clear,20,2013-09-28 16:35:00
10:55 AM,64.4,35.6,34,30.21,10.0,NNE,11.5,16.1,N/A,,Clear,30,2013-09-28 16:55:00
11:15 AM,64.4,35.6,34,30.21,10.0,NNE,6.9,-,N/A,,Clear,30,2013-09-28 17:15:00
12:15 PM,68.0,41.0,37,30.21,10.0,ENE,4.6,-,N/A,,Clear,60,2013-09-28 18:15:00
12:35 PM,68.0,39.2,35,30.20,10.0,East,6.9,-,N/A,,Clear,80,2013-09-28 18:35:00
12:55 PM,68.0,39.2,35,30.19,10.0,NE,8.1,-,N/A,,Clear,40,2013-09-28 18:55:00
1:15 PM,69.8,39.2,33,30.19,10.0,East,8.1,-,N/A,,Clear,80,2013-09-28 19:15:00
1:35 PM,71.6,39.2,31,30.18,10.0,NE,10.4,-,N/A,,Clear,40,2013-09-28 19:35:00
1:55 PM,71.6,39.2,31,30.18,10.0,NNE,5.8,-,N/A,,Clear,20,2013-09-28 19:55:00
2:15 PM,71.6,37.4,29,30.17,10.0,NE,10.4,-,N/A,,Clear,40,2013-09-28 20:15:00
2:35 PM,71.6,35.6,27,30.16,10.0,Calm,Calm,-,N/A,,Clear,0,2013-09-28 20:35:00
2:55 PM,71.6,37.4,29,30.16,10.0,SE,4.6,-,N/A,,Clear,140,2013-09-28 20:55:00
3:15 PM,71.6,37.4,29,30.16,10.0,Calm,Calm,-,N/A,,Clear,0,2013-09-28 21:15:00
3:35 PM,71.6,37.4,29,30.15,10.0,NE,4.6,-,N/A,,Clear,40,2013-09-28 21:35:00
3:55 PM,71.6,35.6,27,30.15,10.0,East,4.6,-,N/A,,Clear,100,2013-09-28 21:55:00
4:15 PM,71.6,35.6,27,30.14,10.0,NE,5.8,-,N/A,,Clear,50,2013-09-28 22:15:00
4:35 PM,71.6,37.4,29,30.14,10.0,NW,3.5,-,N/A,,Clear,310,2013-09-28 22:35:00
5:15 PM,71.6,37.4,29,30.13,10.0,NNW,4.6,-,N/A,,Clear,340,2013-09-28 23:15:00
5:35 PM,71.6,37.4,29,30.14,10.0,NNE,5.8,-,N/A,,Clear,30,2013-09-28 23:35:00
5:55 PM,71.6,37.4,29,30.14,10.0,Calm,Calm,-,N/A,,Clear,0,2013-09-28 23:55:00
6:15 PM,71.6,37.4,29,30.14,10.0,Calm,Calm,-,N/A,,Clear,0,2013-09-29 00:15:00
6:35 PM,69.8,37.4,31,30.14,10.0,Calm,Calm,-,N/A,,Clear,0,2013-09-29 00:35:00
6:55 PM,69.8,37.4,31,30.15,10.0,Calm,Calm,-,N/A,,Clear,0,2013-09-29 00:55:00
7:15 PM,66.2,41.0,40,30.15,10.0,NW,3.5,-,N/A,,Clear,310,2013-09-29 01:15:00
7:35 PM,66.2,41.0,40,30.16,10.0,NW,5.8,-,N/A,,Clear,310,2013-09-29 01:35:00
7:55 PM,64.4,41.0,42,30.16,10.0,NW,4.6,-,N/A,,Clear,310,2013-09-29 01:55:00
8:15 PM,62.6,41.0,45,30.17,10.0,NW,5.8,-,N/A,,Clear,310,2013-09-29 02:15:00
8:35 PM,62.6,41.0,45,30.18,10.0,NW,6.9,-,N/A,,Clear,310,2013-09-29 02:35:00
8:55 PM,59.0,41.0,51,30.19,10.0,NW,6.9,-,N/A,,Clear,320,2013-09-29 02:55:00
9:15 PM,59.0,41.0,51,30.20,10.0,WNW,6.9,-,N/A,,Clear,300,2013-09-29 03:15:00
9:35 PM,57.2,42.8,59,30.21,10.0,West,8.1,-,N/A,,Clear,280,2013-09-29 03:35:00
9:55 PM,57.2,41.0,55,30.22,10.0,West,8.1,-,N/A,,Clear,280,2013-09-29 03:55:00
10:15 PM,57.2,41.0,55,30.22,10.0,West,9.2,-,N/A,,Clear,280,2013-09-29 04:15:00
10:35 PM,57.2,41.0,55,30.22,10.0,West,8.1,-,N/A,,Clear,280,2013-09-29 04:35:00
10:55 PM,57.2,41.0,55,30.23,10.0,NNW,3.5,-,N/A,,Clear,340,2013-09-29 04:55:00
11:15 PM,57.2,41.0,55,30.23,10.0,NE,3.5,-,N/A,,Clear,50,2013-09-29 05:15:00
11:35 PM,57.2,41.0,55,30.23,10.0,NNW,3.5,-,N/A,,Clear,340,2013-09-29 05:35:00
11:55 PM,55.4,41.0,58,30.23,10.0,NNW,3.5,-,N/A,,Clear,330,2013-09-29 05:55:00